Skip Page Navigation
NASA JPL Caltech
NASA Logo - Jet Propulsion Laboratory + View the NASA Portal
+ Center for Near-Earth Object Studies
JPL Home Earth Solar System Stars & Galaxies Technology
JPL Solar System Dynamics
BODIES ORBITS EPHEMERIDES TOOLS PHYSICAL DATA DISCOVERY FAQ SITE MAP
IMPORTANT: The SSD Announcement email list is now available. Major changes are coming in the near future, including possible hostname and/or URL changes. To be notified of such changes, subscribe to this email list.

Please visit this page for more details.


JPL Small-Body Database Browser
Search: [ help ]  
27348 Mink (2000 DX14)
Classification: Main-belt Asteroid          SPK-ID: 2027348
Ephemeris | Orbit Diagram | Orbital Elements | Mission Design | Physical Parameters | Discovery Circumstances ]

[ show orbit diagram ]
Orbital Elements at Epoch 2458600.5 (2019-Apr-27.0) TDB
Reference: JPL 27 (heliocentric ecliptic J2000)
 Element Value Uncertainty (1-sigma)   Units 
e .1363265672014344 2.8087e-08  
a 2.288895238680071 5.6063e-09 au
q 1.976858008107109 6.438e-08 au
i 7.07753944276147 3.0262e-06 deg
node 124.973796201548 2.8177e-05 deg
peri 248.0888012186778 3.1143e-05 deg
M 338.5618416923699 1.2808e-05 deg
tp 2458675.822074600318
(2019-Jul-11.32207460)
4.5077e-05 TDB
period 1264.844977213524
3.46
4.6471e-06
1.272e-08
d
yr
n .2846198597341837 1.0457e-09 deg/d
Q 2.600932469253034 6.3706e-09 au
  Orbit Determination Parameters
   # obs. used (total)      1590  
   data-arc span      11287 days (30.90 yr)  
   first obs. used      1989-01-02  
   last obs. used      2019-11-28  
   planetary ephem.      DE431  
   SB-pert. ephem.      SB431-N16  
   condition code      0  
   norm. resid. RMS      .48693  
   source      ORB  
   producer      Otto Matic  
   solution date      2019-Dec-04 01:03:15  

Additional Information
 Earth MOID = .988357 au 
 Jupiter MOID = 2.87682 au 
 T_jup = 3.577 
[ show covariance matrix ]

Ephemeris | Orbit Diagram | Orbital Elements | Mission Design | Physical Parameters | Discovery Circumstances ]

Physical Parameter Table
Parameter Symbol Value Units Sigma Reference Notes
absolute magnitude H 14.6   n/a MPO452552  
diameter diameter 2.602 km 0.177 urn:nasa:pds:neowise_diameters_albedos::2.0[mainbelt] (http://adsabs.harvard.edu/abs/2011ApJ...741...68M)  
geometric albedo albedo 0.413   0.021 urn:nasa:pds:neowise_diameters_albedos::2.0[mainbelt] (http://adsabs.harvard.edu/abs/2011ApJ...741...68M)  

27348 Mink           Discovered 2000 Feb. 26 by the Catalina Sky Survey.
Ronald Mink (b. 1970) is the Deputy Project Systems Engineer for the OSIRIS-REx Asteroid Sample Return Mission. He leads the design effort and detailed planning for spacecraft proximity operations around the asteroid. He also served as an Optical Engineer for NIRSpec on the James Webb Space Telescope.
NOTE: some special characters may not display properly (any characters within {} are an attempt to place the proper accent above a character)
Reference: MPC batch dated 2013-09-19Last Updated: 2013-09-23

Alternate Designations
 2000 DX14 = 1989 AG9 
Ephemeris | Orbit Diagram | Orbital Elements | Mission Design | Physical Parameters | Discovery Circumstances ]
ABOUT SSD CREDITS/AWARDS PRIVACY/COPYRIGHT GLOSSARY LINKS
FirstGov 2019-Dec-12 08:51 UT
(server date/time)  
NASA Home Page
Site Manager:   Ryan S. Park
Webmaster  Alan B. Chamberlin